Content
SEND FEEDBACK

Daily
Averages
Monthly
Summary
Canada

VANCOUVER - UNIVERSITY, BRITISH COLUMBIA


Home > North America > Canada > British Columbia
Elevation: 249 feet     Latitude: 49 15N     Longitude: 123 15W

WEATHER
 
SELECT A DAY
Number of Records: 199,917;   Date Range: 1/1/95 - 12/27/14
 
SHARE

PRINT THIS DATA

[ ← Previous Day ]
WEATHER ALMANAC - NOVEMBER 13, 2013
[ Next Day → ]
[ °C ]   °F
Weather ElementAverageHighLow
Temperature51.5 °F55.4 °F (11:00 am)48.2 °F (6:00 am)
Dewpoint46.6 °F48.2 °F (12:09 am)44.6 °F (6:00 am)
Humidity83.1 %94 % (12:09 am)70 % (4:00 pm)
Barometer30.36 in30.40 in (10:00 am)30.31 in (12:09 am)
Wind Speed6.5 mph10.4 mph (4:00 am)
Wind Gust17.3 mph (4:00 am)
Weather ElementAverage
Visibility16.7 mi
Wind DirectionESE (112.5 °)

Weather ElementTotal
Precipitation---
Heating Degree Days13.2 (Base 65)
Growing Degree Days1.8 (Base 50)
Averaged from 28 records on November 13, 2013
WEATHER CONDITIONS BREAKOUT
WIND DIRECTION BREAKOUT
WEATHER BY HOUR - NOVEMBER 13, 2013
[ °C ]   °F
Local TimeTemperatureDewpointHumidityBarometerVisibilityWind DirectionWind SpeedGust SpeedPrecipitationEventsConditions
12:09 AM50.0 °F48.2 °F94 %30.31 in15.0 miEast (90°)8.1 mphOvercast
1:00 AM50.0 °F48.2 °F94 %30.31 in15.0 miESE (110°)5.8 mphOvercast
2:00 AM50.0 °F46.4 °F87 %30.32 in15.0 miENE (60°)4.6 mphMostly Cloudy
3:00 AM50.0 °F46.4 °F87 %30.32 in15.0 miSouth (170°)8.1 mphScattered Clouds
4:00 AM51.0 °F46.0 °F77 %30.32 in15.0 miSouth (180°)10.4 mphPartly Cloudy
4:00 AM51.8 °F46.4 °F82 %30.32 in15.0 miSouth (180°)8.1 mph17.3 mphScattered Clouds
5:00 AM50.0 °F46.4 °F87 %30.35 in15.0 miVariable2.3 mphPartly Cloudy
6:00 AM48.2 °F44.6 °F87 %30.36 in15.0 miESE (120°)6.9 mphMostly Cloudy
7:00 AM48.2 °F44.6 °F87 %30.37 in15.0 miESE (120°)8.1 mphMostly Cloudy
8:00 AM48.2 °F46.4 °F93 %30.38 in15.0 miENE (70°)6.9 mphScattered Clouds
9:00 AM50.0 °F48.2 °F94 %30.39 in20.0 miEast (90°)8.1 mphScattered Clouds
10:00 AM53.0 °F48.0 °F76 %30.40 in19.0 miEast (100°)5.8 mphPartly Cloudy
10:00 AM53.6 °F48.2 °F82 %30.39 in20.0 miESE (110°)5.8 mphScattered Clouds
11:00 AM55.4 °F48.2 °F77 %30.40 in20.0 miEast (100°)5.8 mphScattered Clouds
12:00 PM55.4 °F46.4 °F72 %30.40 in20.0 miSSE (150°)3.5 mphMostly Cloudy
1:00 PM55.4 °F46.4 °F72 %30.39 in20.0 miSSW (210°)3.5 mphMostly Cloudy
2:00 PM55.4 °F46.4 °F72 %30.38 in20.0 miSE (140°)5.8 mphMostly Cloudy
3:00 PM55.4 °F46.4 °F72 %30.37 in20.0 miSE (130°)8.1 mphMostly Cloudy
4:00 PM54.0 °F47.0 °F70 %30.38 in19.0 miSSE (150°)4.6 mphOvercast
4:00 PM53.6 °F46.4 °F77 %30.38 in20.0 miSSE (160°)4.6 mphOvercast
5:00 PM51.8 °F46.4 °F82 %30.37 in15.0 miSE (130°)6.9 mphOvercast
6:00 PM51.8 °F46.4 °F82 %30.36 in15.0 miESE (120°)6.9 mphMostly Cloudy
7:00 PM51.8 °F46.4 °F82 %30.35 in15.0 miENE (60°)5.8 mphMostly Cloudy
8:00 PM50.0 °F46.4 °F87 %30.35 in15.0 miEast (80°)8.1 mphOvercast
9:00 PM50.0 °F46.4 °F87 %30.34 in15.0 miEast (90°)8.1 mphOvercast
10:00 PM49.0 °F46.0 °F87 %30.33 in15.0 miENE (70°)5.8 mphOvercast
10:00 PM50.0 °F46.4 °F87 %30.33 in15.0 miEast (80°)6.9 mphOvercast
11:00 PM48.2 °F46.4 °F93 %30.31 in15.0 miEast (80°)8.1 mphOvercast
Hourly data recorded from CYVR, located miles away from Vancouver - University, British Columbia







STORIES FROM OUR PARTNERS